TINTIN A (43216 NORAD) Tracking and Keplerian Element Data

This shows tracking and keplerian element data for the satellite.

Feedback or suggestion? Click here.




ElementValue
Catalog43216
NameTINTIN A
Epoch Orbit4038
Epoch Day319.54843983
Epoch Year2018
RAAN325.083
Inclination97.4545
Eccentricity0.0014519
Argument of Perigee70.5395
Mean Anonmoly289.7407
Mean Motion15.19686564
Decay Rate1.044E-05
L11 43216U 18020B 18319.54843983 .00001044 00000-0 52043-4 0 9990
L22 43216 97.4545 325.0830 0014519 70.5395 289.7407 15.19686564 40385

Live tracking and technical data element details for TINTIN A (NORAD 43216). TINTIN A can be tracked NOW for your location showing map with azimuth and elevation plus other details from your city location.

Track the satellite on the map from your city or location and see movement details for azimuth, elevation, latitude, longitude, range, height, and movement on the map or in text.







IsCatalogInMostPopularTable: catalog: 43216, numindb: 184
Update: records affected: 1



GetName: 43216 TINTIN A

Hit Count: updated at: Fri, 16 Nov 2018 09:31:00 GMT